{"data":{"norad_id":60101,"epoch":"2026-09-21T06:18:47.847456Z","epoch_age_seconds":111360,"freshness":"FRESH","line1":"1 60101U 24117L   26264.26305379 -.00000348  00000+0  82879-6 0  9993","line2":"2 60101  53.1568 206.2970 0001394  85.9802 274.1360 15.34392220126860","mean_motion":15.3439222,"eccentricity":0.0001394,"inclination_deg":53.1568,"raan_deg":206.297,"arg_perigee_deg":85.9802,"mean_anomaly_deg":274.136,"bstar":8.2879e-7,"rev_number":12686,"period_min":93.848233928089,"perigee_km":461.77274775142,"apogee_km":463.67998045733,"semimajor_km":6840.8633641044,"source":"CELESTRAK","updated_at":"2026-09-22T09:00:49.151654Z"}}